FW6214 Weather Reports


Display with metric or nautical units.
time (UTC)temp
F
wind
direction
speed
MPH
gust
MPH
rain 1hr
in
rain 24hr
in
rain mn
in
humidity
%
barometer
mb
20260505234818 65 226 0.0 3.0 0.00 0.00 0.00 52 1015.4
20260505234328 65 238 0.0 3.0 0.00 0.00 0.00 52 1015.4
20260505233811 66 253 0.0 5.0 0.00 0.00 0.00 52 1015.4
20260505233316 66 222 1.0 4.0 0.00 0.00 0.00 52 1015.3
20260505232819 66 278 0.0 0.0 0.00 0.00 0.00 51 1015.3
20260505232330 66 240 0.0 1.0 0.00 0.00 0.00 52 1015.3
20260505231812 66 254 0.0 0.0 0.00 0.00 0.00 52 1015.3
20260505231355 66 253 0.0 2.0 0.00 0.00 0.00 52 1015.4
20260505230817 66 268 0.0 2.0 0.00 0.00 0.00 53 1015.5
20260505230322 66 229 0.0 2.0 0.00 0.00 0.00 53 1015.6
20260505225830 66 243 0.0 2.0 0.00 0.00 0.00 51 1015.6
20260505225313 66 239 0.0 0.0 0.00 0.00 0.00 53 1015.4
20260505224816 66 231 0.0 0.0 0.00 0.00 0.00 53 1015.4
20260505224331 66 271 0.0 0.0 0.00 0.00 0.00 55 1015.5
20260505223812 66 245 0.0 0.0 0.00 0.00 0.00 52 1015.5
20260505223315 66 235 0.0 0.0 0.00 0.00 0.00 52 1015.7
20260505222825 66 236 0.0 0.0 0.00 0.00 0.00 52 1015.6
20260505222328 67 252 0.0 0.0 0.00 0.00 0.00 53 1015.9
20260505221810 67 236 0.0 0.0 0.00 0.00 0.00 51 1015.8
20260505221312 67 250 0.0 0.0 0.00 0.00 0.00 51 1015.8
20260505220820 67 245 0.0 0.0 0.00 0.00 0.00 50 1015.9
20260505220324 67 240 0.0 0.0 0.00 0.00 0.00 49 1015.9
20260505215834 67 264 0.0 1.0 0.00 0.00 0.00 51 1015.8
20260505215316 67 219 0.0 1.0 0.00 0.00 0.00 48 1015.6
20260505214818 67 261 0.0 5.0 0.00 0.00 0.00 49 1015.4
20260505214328 67 248 0.0 5.0 0.00 0.00 0.00 49 1015.4
20260505213828 68 236 0.0 3.0 0.00 0.00 0.00 46 1015.5
20260505213311 69 247 0.0 3.0 0.00 0.00 0.00 46 1015.6
20260505212813 69 238 0.0 3.0 0.00 0.00 0.00 45 1015.5
20260505212402 69 231 0.0 5.0 0.00 0.00 0.00 47 1015.5
20260505211828 69 244 0.0 5.0 0.00 0.00 0.00 46 1015.5
20260505211328 70 240 0.0 4.0 0.00 0.00 0.00 50 1015.5
20260505210810 70 251 1.0 5.0 0.00 0.00 0.00 46 1015.8
20260505210320 70 262 0.0 6.0 0.00 0.00 0.00 45 1015.7
20260505205824 70 219 0.0 6.0 0.00 0.00 0.00 47 1015.8
20260505205326 70 214 0.0 7.0 0.00 0.00 0.00 45 1015.8
20260505204809 69 255 1.0 9.0 0.00 0.00 0.00 45 1015.8
20260505204319 69 250 1.0 9.0 0.00 0.00 0.00 43 1015.8
20260505203824 69 245 1.0 6.0 0.00 0.00 0.00 44 1015.8
20260505203309 71 234 1.0 5.0 0.00 0.00 0.00 47 1015.8
20260505202810 70 243 0.0 10.0 0.00 0.00 0.00 46 1015.9
20260505202320 70 245 2.0 10.0 0.00 0.00 0.00 46 1015.8
20260505201841 70 249 0.0 5.0 0.00 0.00 0.00 47 1015.8
20260505201328 70 304 0.0 7.0 0.00 0.00 0.00 45 1015.8
20260505200828 71 243 1.0 7.0 0.00 0.00 0.00 43 1016.0
20260505200337 71 226 0.0 4.0 0.00 0.00 0.00 44 1015.9
20260505195812 70 243 1.0 8.0 0.00 0.00 0.00 49 1016.1
20260505195315 70 238 1.0 9.0 0.00 0.00 0.00 46 1016.2
20260505194826 71 215 2.0 9.0 0.00 0.00 0.00 45 1016.2
20260505194326 71 217 2.0 7.0 0.00 0.00 0.00 50 1016.2
20260505193809 71 217 2.0 7.0 0.00 0.00 0.00 47 1016.2
20260505193333 71 217 0.0 5.0 0.00 0.00 0.00 47 1016.5
20260505192817 71 246 1.0 5.0 0.00 0.00 0.00 46 1016.5
20260505192318 71 254 0.0 1.0 0.00 0.00 0.00 50 1016.5
20260505191818 71 237 0.0 1.0 0.00 0.00 0.00 50 1016.5
20260505191325 71 244 0.0 1.0 0.00 0.00 0.00 51 1016.6
20260505190833 70 252 0.0 4.0 0.00 0.00 0.00 48 1016.7
20260505190314 69 236 0.0 6.0 0.00 0.00 0.00 48 1016.8
20260505185818 70 225 1.0 8.0 0.00 0.00 0.00 47 1016.8
20260505185326 70 245 1.0 8.0 0.00 0.00 0.00 51 1016.8
20260505184826 68 233 1.0 7.0 0.00 0.00 0.00 48 1016.8
20260505184354 69 255 2.0 7.0 0.00 0.00 0.00 51 1016.7
20260505183814 69 239 1.0 5.0 0.00 0.00 0.00 53 1016.7
20260505183316 69 250 0.0 5.0 0.00 0.00 0.00 52 1016.7
20260505182817 69 228 0.0 5.0 0.00 0.00 0.00 52 1016.7
20260505182327 69 235 1.0 9.0 0.00 0.00 0.00 50 1016.8
20260505181809 69 251 2.0 9.0 0.00 0.00 0.00 49 1016.9
20260505181311 69 240 0.0 6.0 0.00 0.00 0.00 52 1017.1
20260505180822 68 253 2.0 6.0 0.00 0.00 0.00 50 1017.1
20260505180325 68 231 1.0 5.0 0.00 0.00 0.00 50 1017.2
20260505175827 69 242 0.0 3.0 0.00 0.00 0.00 53 1017.2
20260505175335 68 252 0.0 3.0 0.00 0.00 0.00 53 1017.3
20260505174839 68 233 0.0 3.0 0.00 0.00 0.00 54 1017.4
20260505174322 68 247 0.0 6.0 0.00 0.00 0.00 54 1017.6
20260505173832 68 226 1.0 6.0 0.00 0.00 0.00 52 1017.7
20260505173314 67 242 0.0 11.0 0.00 0.00 0.00 53 1017.7
20260505172815 68 267 1.0 7.0 0.00 0.00 0.00 54 1017.6
20260505172323 68 215 0.0 5.0 0.00 0.00 0.00 54 1017.6
20260505171831 67 234 0.0 4.0 0.00 0.00 0.00 55 1017.8
20260505171332 67 235 0.0 0.0 0.00 0.00 0.00 54 1017.9
20260505170811 67 264 0.0 6.0 0.00 0.00 0.00 55 1018.0
20260505170319 67 250 1.0 6.0 0.00 0.00 0.00 53 1017.9
20260505165820 66 226 0.0 4.0 0.00 0.00 0.00 54 1017.9
20260505165347 66 229 0.0 5.0 0.00 0.00 0.00 55 1017.7
20260505164809 66 225 1.0 6.0 0.00 0.00 0.00 52 1017.8
20260505164314 66 259 0.0 11.0 0.00 0.00 0.00 54 1017.7
20260505163822 66 260 1.0 10.0 0.00 0.00 0.00 52 1017.6
20260505163325 65 229 0.0 8.0 0.00 0.00 0.00 52 1017.6
20260505162808 66 219 0.0 8.0 0.00 0.00 0.00 51 1017.7
20260505162318 66 242 0.0 1.0 0.00 0.00 0.00 52 1017.8
20260505161821 66 205 0.0 0.0 0.00 0.00 0.00 52 1017.9
20260505161323 65 229 0.0 4.0 0.00 0.00 0.00 50 1017.9
20260505160830 65 224 0.0 6.0 0.00 0.00 0.00 52 1017.9
20260505160314 65 252 1.0 6.0 0.00 0.00 0.00 54 1017.9
20260505153324 63 247 0.0 0.0 0.00 0.00 0.00 60 1017.9
20260505152833 62 257 0.0 3.0 0.00 0.00 0.00 61 1018.0
20260505152317 62 243 0.0 4.0 0.00 0.00 0.00 60 1018.0
20260505151842 62 241 0.0 4.0 0.00 0.00 0.00 61 1018.0
20260505151329 62 224 0.0 1.0 0.00 0.00 0.00 65 1018.0
20260505150815 62 251 0.0 5.0 0.00 0.00 0.00 65 1018.2
20260505150317 62 212 0.0 5.0 0.00 0.00 0.00 66 1018.2
20260505140325 58 250 0.0 3.0 0.00 0.00 0.00 71 1017.9
20260505124810 57 248 0.0 0.0 0.00 0.00 0.00 70 1016.9
20260505124313 57 242 0.0 0.0 0.00 0.00 0.00 69 1016.9
20260505123814 57 225 0.0 0.0 0.00 0.00 0.00 69 1016.9
20260505123341 57 210 0.0 0.0 0.00 0.00 0.00 70 1016.8
20260505122823 57 233 0.0 0.0 0.00 0.00 0.00 69 1016.8
20260505122332 57 230 0.0 0.0 0.00 0.00 0.00 69 1016.9
20260505121815 57 212 0.0 0.0 0.00 0.00 0.00 69 1016.8
20260505121318 57 225 0.0 0.0 0.00 0.00 0.00 68 1016.7
20260505120847 57 247 0.0 0.0 0.00 0.00 0.00 69 1016.7
20260505120310 56 201 0.0 0.0 0.00 0.00 0.00 69 1016.8
20260505115320 56 243 0.0 0.0 0.00 0.00 0.00 68 1016.8
20260505114830 56 228 0.0 0.0 0.00 0.00 0.00 66 1016.7
20260505114311 56 238 0.0 0.0 0.00 0.00 0.00 67 1016.6
20260505113813 56 244 0.0 0.0 0.00 0.00 0.00 66 1016.5
20260505113321 56 245 0.0 0.0 0.00 0.00 0.00 64 1016.3
20260505112823 56 206 0.0 0.0 0.00 0.00 0.00 64 1016.2
20260505112325 56 237 0.0 0.0 0.00 0.00 0.00 64 1016.2
20260505111835 56 227 0.0 0.0 0.00 0.00 0.00 63 1016.1
20260505111319 56 228 0.0 0.0 0.00 0.00 0.00 63 1016.0
20260505110822 56 236 0.0 0.0 0.00 0.00 0.00 62 1016.0
20260505110310 56 217 0.0 0.0 0.00 0.00 0.00 62 1016.1
20260505101818 55 242 0.0 2.0 0.00 0.00 0.00 62 1015.7
20260505101326 56 238 0.0 2.0 0.00 0.00 0.00 62 1015.8
20260505100809 56 252 0.0 0.0 0.00 0.00 0.00 61 1015.9
20260505100312 56 229 0.0 0.0 0.00 0.00 0.00 61 1016.1
20260505095813 56 227 0.0 0.0 0.00 0.00 0.00 60 1016.1
20260505095341 56 210 0.0 1.0 0.00 0.00 0.00 60 1016.2
20260505094822 56 225 0.0 1.0 0.00 0.00 0.00 59 1016.0
20260505094331 56 238 0.0 0.0 0.00 0.00 0.00 59 1016.0
20260505093833 56 250 0.0 4.0 0.00 0.00 0.00 59 1016.1
20260505093320 56 243 0.0 4.0 0.00 0.00 0.00 58 1016.1
20260505092823 56 243 0.0 0.0 0.00 0.00 0.00 58 1016.1
20260505092317 57 247 0.0 3.0 0.00 0.00 0.00 58 1016.2
20260505091827 57 241 0.0 3.0 0.00 0.00 0.00 57 1016.2
20260505091311 57 241 0.0 5.0 0.00 0.00 0.00 58 1016.2
20260505090810 57 234 1.0 5.0 0.00 0.00 0.00 58 1016.1
20260505090318 57 238 0.0 3.0 0.00 0.00 0.00 58 1016.2
20260505085820 57 216 0.0 3.0 0.00 0.00 0.00 58 1016.3
20260505085321 57 240 0.0 2.0 0.00 0.00 0.00 59 1016.3
20260505084918 56 243 0.0 1.0 0.00 0.00 0.00 59 1016.3
20260505084315 56 250 0.0 3.0 0.00 0.00 0.00 59 1016.3
20260505083818 56 240 0.0 5.0 0.00 0.00 0.00 59 1016.3
20260505083328 56 229 1.0 5.0 0.00 0.00 0.00 59 1016.3
20260505082811 57 245 0.0 0.0 0.00 0.00 0.00 59 1016.3
20260505082315 57 238 0.0 0.0 0.00 0.00 0.00 60 1016.4
20260505081817 57 258 0.0 0.0 0.00 0.00 0.00 60 1016.4
20260505081327 57 248 0.0 0.0 0.00 0.00 0.00 60 1016.3
20260505080849 57 259 0.0 0.0 0.00 0.00 0.00 59 1016.3
20260505080324 57 243 0.0 0.0 0.00 0.00 0.00 59 1016.3
20260505075825 57 231 0.0 0.0 0.00 0.00 0.00 58 1016.3
20260505075353 58 236 0.0 0.0 0.00 0.00 0.00 58 1016.2
20260505074815 58 264 0.0 0.0 0.00 0.00 0.00 57 1016.3
20260505074318 58 223 0.0 0.0 0.00 0.00 0.00 57 1016.3
20260505073818 58 229 0.0 0.0 0.00 0.00 0.00 57 1016.3
20260505073327 58 240 0.0 1.0 0.00 0.00 0.00 56 1016.3
20260505072808 58 231 0.0 5.0 0.00 0.00 0.00 56 1016.3
20260505072311 58 226 1.0 5.0 0.00 0.00 0.00 57 1016.3
20260505071814 58 264 0.0 3.0 0.00 0.00 0.00 57 1016.3
20260505071324 58 236 0.0 0.0 0.00 0.00 0.00 58 1016.4
20260505070316 57 248 0.0 0.0 0.00 0.00 0.00 59 1016.3
20260505065845 58 240 0.0 3.0 0.00 0.00 0.00 59 1016.4
20260505065325 58 234 0.0 4.0 0.00 0.00 0.00 58 1016.3
20260505064834 58 250 0.0 4.0 0.00 0.00 0.00 58 1016.4
20260505064316 58 249 0.0 0.0 0.00 0.00 0.00 58 1016.4
20260505063818 58 238 0.0 0.0 0.00 0.00 0.00 58 1016.5
20260505063326 58 231 0.0 0.0 0.00 0.00 0.00 58 1016.5
20260505062827 58 237 0.0 0.0 0.00 0.00 0.00 58 1016.5
20260505062310 58 233 0.0 0.0 0.00 0.00 0.00 59 1016.5
20260505061818 58 242 0.0 0.0 0.00 0.00 0.00 58 1016.6
20260505061321 58 248 0.0 3.0 0.00 0.00 0.00 58 1016.6
20260505060829 58 229 0.0 3.0 0.00 0.00 0.00 57 1016.6
20260505060309 58 239 1.0 3.0 0.00 0.00 0.00 57 1016.7
20260505055811 58 243 0.0 3.0 0.00 0.00 0.00 57 1016.7
20260505055319 58 235 0.0 3.0 0.00 0.00 0.00 57 1016.7
20260505054821 58 245 0.0 3.0 0.00 0.00 0.00 58 1016.8
20260505054329 58 237 0.0 0.0 0.00 0.00 0.00 58 1016.8
20260505053811 58 240 0.0 0.0 0.00 0.00 0.00 58 1016.9
20260505053328 58 238 0.0 0.0 0.00 0.00 0.00 58 1016.8
20260505052811 58 219 0.0 0.0 0.00 0.00 0.00 57 1016.8
20260505052312 58 236 0.0 0.0 0.00 0.00 0.00 57 1016.9
20260505051823 58 250 0.0 0.0 0.00 0.00 0.00 57 1016.9
20260505051309 58 237 0.0 3.0 0.00 0.00 0.00 57 1016.9
20260505050811 58 233 0.0 3.0 0.00 0.00 0.00 56 1017.0
20260505050322 58 222 0.0 0.0 0.00 0.00 0.00 56 1016.9
20260505041331 60 266 0.0 0.0 0.00 0.00 0.00 54 1016.7
20260505040816 60 211 0.0 4.0 0.00 0.00 0.00 54 1016.7
20260505040335 60 249 0.0 4.0 0.00 0.00 0.00 54 1016.7
20260505035823 60 235 1.0 4.0 0.00 0.00 0.00 53 1016.8
20260505035324 60 255 0.0 6.0 0.00 0.00 0.00 52 1016.8
20260505034810 60 238 0.0 8.0 0.00 0.00 0.00 53 1016.8
20260505034312 60 240 0.0 5.0 0.00 0.00 0.00 52 1016.8
20260505033821 61 241 1.0 5.0 0.00 0.00 0.00 51 1016.8
20260505033324 61 243 1.0 3.0 0.00 0.00 0.00 51 1016.8
20260505032828 61 226 0.0 5.0 0.00 0.00 0.00 51 1016.9
20260505032313 61 213 1.0 5.0 0.00 0.00 0.00 50 1016.9
20260505031816 61 236 0.0 5.0 0.00 0.00 0.00 50 1016.9
20260505031323 61 235 0.0 4.0 0.00 0.00 0.00 50 1016.8
20260505030840 61 236 0.0 0.0 0.00 0.00 0.00 50 1016.9
20260505030347 61 245 0.0 0.0 0.00 0.00 0.00 50 1016.9
20260505025829 61 252 0.0 2.0 0.00 0.00 0.00 51 1017.0
20260505025312 61 231 0.0 5.0 0.00 0.00 0.00 51 1017.0
20260505024820 61 245 0.0 3.0 0.00 0.00 0.00 51 1017.0
20260505024323 61 239 0.0 5.0 0.00 0.00 0.00 50 1017.0
20260505023851 61 219 1.0 5.0 0.00 0.00 0.00 50 1017.0
20260505023315 61 219 0.0 5.0 0.00 0.00 0.00 51 1016.9
20260505022332 61 257 0.0 4.0 0.00 0.00 0.00 52 1016.8
20260505021327 62 235 0.0 4.0 0.00 0.00 0.00 53 1016.9
20260505020811 62 224 0.0 3.0 0.00 0.00 0.00 53 1016.8
20260505015828 62 244 0.0 6.0 0.00 0.00 0.00 54 1016.7
20260505015309 62 261 1.0 5.0 0.00 0.00 0.00 53 1016.7
20260505014819 62 238 1.0 3.0 0.00 0.00 0.00 55 1016.7
20260505014320 62 224 0.0 0.0 0.00 0.00 0.00 55 1016.7
20260505013848 62 216 0.0 0.0 0.00 0.00 0.00 55 1016.6
20260505013334 62 253 0.0 0.0 0.00 0.00 0.00 55 1016.4
20260505012837 62 266 0.0 1.0 0.00 0.00 0.00 55 1016.4
20260505012325 62 225 0.0 2.0 0.00 0.00 0.00 55 1016.4
20260505011825 62 250 0.0 4.0 0.00 0.00 0.00 55 1016.4
20260505011330 62 240 0.0 4.0 0.00 0.00 0.00 56 1016.4
20260505010818 62 276 0.0 3.0 0.00 0.00 0.00 57 1016.5
20260505010314 63 243 0.0 3.0 0.00 0.00 0.00 56 1016.4
20260505005843 63 242 0.0 0.0 0.00 0.00 0.00 57 1016.4
20260505005330 63 256 0.0 1.0 0.00 0.00 0.00 56 1016.4
20260505004812 63 250 0.0 3.0 0.00 0.00 0.00 56 1016.4
20260505004317 63 223 0.0 0.0 0.00 0.00 0.00 56 1016.3
20260505003817 63 253 0.0 2.0 0.00 0.00 0.00 57 1016.3
20260505003327 63 231 0.0 2.0 0.00 0.00 0.00 58 1016.2
20260505002810 63 259 0.0 0.0 0.00 0.00 0.00 57 1016.2
20260505002312 64 267 0.0 0.0 0.00 0.00 0.00 57 1016.2
20260505001819 64 238 0.0 0.0 0.00 0.00 0.00 57 1016.2
20260505001321 64 232 0.0 0.0 0.00 0.00 0.00 57 1016.2
20260505000830 64 242 0.0 0.0 0.00 0.00 0.00 56 1016.2
20260505000312 64 244 0.0 0.0 0.00 0.00 0.00 56 1016.1
20260504235814 65 244 0.0 0.0 0.00 0.00 0.00 56 1016.2
20260504235325 65 244 0.0 0.0 0.00 0.00 0.00 55 1016.1